FW1899 Vallirana ES current weather conditions

sailwx.info

Wind from 090

Air temperature 17.8° C
Dewpoint 9.9° C

Last reported at 2020-May-29 03:01 UTC.
Time now 2020-May-29 03:48 UTC

Location: N 41°23' E 001°57'.
View on Google Maps.

See reports from other nearby stations

  
Tides and Currents Weather Stations Pressure Air Temp Water Temp Dewpoint Dewpoint Depression Visibility Wind Speed Wind Dir Waves Ship Positions
date/time (UTC)wind fromknots sea level pressurealtimeterstation pressurevisibilityair tempwater tempwave heightnotes
2020-May-29 03:15 104 0 gusting 1 17.2
2020-May-29 03:08 090 17.2
2020-May-29 03:01 090 17.8
2020-May-29 02:54 090 0 gusting 0 17.8
2020-May-29 02:47 090 0 gusting 1 17.8
2020-May-29 02:40 063 0 gusting 1 17.2
2020-May-29 02:33 041 1 gusting 1 17.2
2020-May-29 02:26 048 1 gusting 1 17.2
2020-May-29 02:19 090 0 gusting 1 17.2
2020-May-29 02:12 135 16.7
2020-May-29 02:05 16.7
2020-May-29 01:58 16.7
2020-May-29 01:51 16.1
2020-May-29 01:44 16.1
2020-May-29 01:37 181 16.1
2020-May-29 01:30 181 16.1
2020-May-29 01:23 045 16.1
2020-May-29 01:16 045 16.1
2020-May-29 01:09 045 0 gusting 1 16.1
2020-May-29 01:02 049 16.1
2020-May-29 00:55 054 0 gusting 1 16.7
2020-May-29 00:48 052 0 gusting 1 16.7
2020-May-29 00:41 005 0 gusting 1 17.2
2020-May-29 00:34 050 0 gusting 1 17.2
2020-May-29 00:27 075 0 gusting 1 17.2
2020-May-29 00:20 054 1 gusting 1 17.2
2020-May-29 00:13 045 1 gusting 1 16.7
2020-May-29 00:06 048 0 gusting 1 16.7
2020-May-28 23:59 103 0 gusting 1 16.7
2020-May-28 23:52 045 16.7
2020-May-28 23:45 045 0 gusting 1 17.2
2020-May-28 23:38 045 0 gusting 1 17.2
2020-May-28 23:31 045 1 gusting 1 17.2
2020-May-28 23:24 067 0 gusting 1 17.2
2020-May-28 23:17 135 0 gusting 1 17.2
2020-May-28 23:10 123 0 gusting 1 17.2
2020-May-28 23:03 040 0 gusting 1 17.2
2020-May-28 22:56 160 0 gusting 1 17.2
2020-May-28 22:49 094 1 gusting 1 17.8
2020-May-28 22:42 042 0 gusting 1 17.8
2020-May-28 22:35 135 0 gusting 1 17.2
2020-May-28 22:28 123 0 gusting 1 17.2
2020-May-28 22:21 060 17.2
2020-May-28 22:14 060 17.2
2020-May-28 22:07 181 17.8
2020-May-28 22:00 17.8
2020-May-28 21:53 045 17.8
2020-May-28 21:46 17.8
2020-May-28 21:39 045 17.8
2020-May-28 21:32 045 0 gusting 0 17.8
2020-May-28 21:25 045 17.8
2020-May-28 21:18 17.8
2020-May-28 21:11 045 0 gusting 1 17.8
2020-May-28 21:04 051 0 gusting 1 17.8
2020-May-28 20:57 090 18.3
2020-May-28 20:50 083 18.3
2020-May-28 20:43 045 18.3
2020-May-28 20:36 110 0 gusting 1 18.3
2020-May-28 20:29 099 0 gusting 1 18.3
2020-May-28 20:22 105 18.3
2020-May-28 20:15 060 0 gusting 1 18.3
2020-May-28 20:08 113 0 gusting 1 18.9
2020-May-28 20:01 104 0 gusting 1 18.9
2020-May-28 19:54 090 0 gusting 0 18.9
2020-May-28 19:47 104 0 gusting 1 19.4
2020-May-28 19:40 076 0 gusting 1 19.4
2020-May-28 19:33 100 0 gusting 1 20.0
2020-May-28 19:26 193 0 gusting 2 20.6
2020-May-28 19:19 150 0 gusting 2 20.6
2020-May-28 19:12 096 0 gusting 2 21.1
2020-May-28 19:05 347 0 gusting 2 21.7
2020-May-28 18:58 065 0 gusting 1 22.8
2020-May-28 18:51 206 1 gusting 2 23.9
2020-May-28 18:44 266 2 gusting 4 24.4
2020-May-28 18:37 236 2 gusting 4 25.0
2020-May-28 18:30 184 2 gusting 3 25.0
2020-May-28 18:23 195 2 gusting 3 25.6
2020-May-28 18:16 214 3 gusting 3 25.6
2020-May-28 18:09 243 3 gusting 5 26.1
2020-May-28 18:02 234 3 gusting 5 26.7
2020-May-28 17:55 236 2 gusting 3 27.2
2020-May-28 17:48 204 2 gusting 3 27.2
2020-May-28 17:41 163 2 gusting 6 27.2
2020-May-28 17:34 236 2 gusting 6 27.2
2020-May-28 17:27 220 2 gusting 3 27.8
2020-May-28 17:20 201 3 gusting 5 27.2
2020-May-28 17:13 196 2 gusting 5 27.8
2020-May-28 17:06 216 3 gusting 5 27.8
2020-May-28 16:59 139 2 gusting 4 28.3
2020-May-28 16:52 163 2 gusting 4 28.3
2020-May-28 16:45 197 3 gusting 6 28.3
2020-May-28 16:38 171 3 gusting 6 28.3
2020-May-28 16:31 033 2 gusting 3 28.9
2020-May-28 16:24 345 2 gusting 5 28.3
2020-May-28 16:17 293 3 gusting 5 28.3
2020-May-28 16:10 134 3 gusting 4 28.9
2020-May-28 16:03 056 3 gusting 4 28.3
2020-May-28 15:56 054 2 gusting 4 28.9
2020-May-28 15:49 250 2 gusting 4 29.4
2020-May-28 15:42 308 1 gusting 3 30.0
2020-May-28 15:35 295 1 gusting 3 29.4
2020-May-28 15:28 302 2 gusting 3 29.4
2020-May-28 15:21 202 2 gusting 6 28.9
2020-May-28 15:14 211 2 gusting 6 29.4
2020-May-28 15:07 330 1 gusting 2 30.0
2020-May-28 15:00 309 2 gusting 4 29.4
2020-May-28 14:53 044 1 gusting 3 29.4
2020-May-28 14:46 291 2 gusting 3 29.4
2020-May-28 14:39 271 2 gusting 5 29.4
2020-May-28 14:32 316 1 gusting 3 30.0
2020-May-28 14:25 031 2 gusting 3 29.4
2020-May-28 14:18 293 2 gusting 3 29.4
2020-May-28 14:11 193 3 gusting 3 29.4
2020-May-28 14:04 213 3 gusting 3 28.3
2020-May-28 13:57 175 3 gusting 5 28.9
2020-May-28 13:50 357 2 gusting 4 28.9
2020-May-28 13:43 113 2 gusting 3 28.9
2020-May-28 13:36 233 1 gusting 3 28.9
2020-May-28 13:29 089 2 gusting 3 28.9
2020-May-28 13:22 044 2 gusting 3 28.3
2020-May-28 13:15 126 2 gusting 3 28.3
2020-May-28 13:08 343 2 gusting 3 28.3
2020-May-28 13:01 040 1 gusting 1 28.9
2020-May-28 12:54 277 2 gusting 5 28.3
2020-May-28 12:47 258 2 gusting 5 28.3
2020-May-28 12:40 263 2 gusting 3 27.8
2020-May-28 12:33 124 2 gusting 3 27.8
2020-May-28 12:26 199 3 gusting 5 27.8
2020-May-28 12:19 321 2 gusting 5 27.8
2020-May-28 12:12 147 2 gusting 3 27.8
2020-May-28 12:05 067 1 gusting 5 26.7
2020-May-28 11:58 224 3 gusting 6 26.7
2020-May-28 11:51 191 2 gusting 3 27.2
2020-May-28 11:44 170 2 gusting 3 27.2
2020-May-28 11:37 061 2 gusting 5 27.2
2020-May-28 11:30 012 2 gusting 3 26.7
2020-May-28 11:23 306 2 gusting 3 27.2
2020-May-28 11:16 020 1 gusting 2 27.2
2020-May-28 11:09 168 2 gusting 5 26.7
2020-May-28 11:02 341 2 gusting 5 26.7
2020-May-28 10:55 279 2 gusting 3 26.7
2020-May-28 10:48 354 2 gusting 4 26.7
2020-May-28 10:41 323 3 gusting 5 26.1
2020-May-28 10:34 293 2 gusting 4 26.7
2020-May-28 10:27 021 2 gusting 4 26.7
2020-May-28 10:20 091 3 gusting 4 26.1
2020-May-28 10:13 154 2 gusting 4 26.1
2020-May-28 10:06 124 1 gusting 4 26.1
2020-May-28 09:59 174 2 gusting 4 26.1
2020-May-28 09:45 011 3 gusting 4 25.6
2020-May-28 09:38 335 2 gusting 3 25.6
2020-May-28 09:31 199 2 gusting 3 25.0
2020-May-28 09:17 042 3 gusting 4 24.4
2020-May-28 09:10 015 2 gusting 3 24.4
2020-May-28 09:03 027 1 gusting 2 25.6
2020-May-28 08:56 022 1 gusting 2 25.0
2020-May-28 08:49 118 1 gusting 2 25.6
2020-May-28 08:42 227 0 gusting 3 25.0
2020-May-28 08:35 143 1 gusting 1 24.4
2020-May-28 08:21 212 0 gusting 2 24.4
2020-May-28 08:14 182 0 gusting 2 25.0
2020-May-28 08:07 306 0 gusting 1 25.0
2020-May-28 08:00 077 0 gusting 1 24.4
2020-May-28 07:53 088 0 gusting 1 23.9
2020-May-28 07:46 047 0 gusting 1 23.3
2020-May-28 07:39 060 0 gusting 1 24.4
2020-May-28 07:32 124 24.4
2020-May-28 07:25 051 0 gusting 1 23.3
2020-May-28 07:18 154 0 gusting 1 22.2
2020-May-28 07:11 094 0 gusting 1 21.7
2020-May-28 07:04 228 0 gusting 1 21.7
2020-May-28 06:57 154 0 gusting 1 21.1
2020-May-28 06:50 092 0 gusting 1 21.7
2020-May-28 06:43 201 0 gusting 1 20.6
2020-May-28 06:36 164 0 gusting 1 20.0
2020-May-28 06:29 167 0 gusting 1 19.4
2020-May-28 06:22 270 0 gusting 1 19.4
2020-May-28 06:15 298 0 gusting 1 19.4
2020-May-28 06:08 237 0 gusting 1 19.4
2020-May-28 06:01 219 18.3
2020-May-28 05:54 337 17.8
2020-May-28 05:47 200 17.8
2020-May-28 05:40 117 17.2
2020-May-28 05:33 17.2
2020-May-28 05:26 16.7
2020-May-28 05:19 045 16.7
2020-May-28 05:12 045 16.7
2020-May-28 05:05 16.7
2020-May-28 04:58 16.1
2020-May-28 04:51 16.1
2020-May-28 04:44 16.1
2020-May-28 04:37 16.1
2020-May-28 04:30 16.1
2020-May-28 04:23 16.1
2020-May-28 04:16 16.1
2020-May-28 04:09 16.1
2020-May-28 04:02 16.1
2020-May-28 03:55 16.1
2020-May-28 03:48 16.1
2020-May-28 03:41 16.1
2020-May-28 03:34 16.1
2020-May-28 03:27 16.1
2020-May-28 03:20 16.1
2020-May-28 03:13 16.1
2020-May-28 03:06 16.1
2020-May-28 02:59 16.1
2020-May-28 02:52 16.1
2020-May-28 02:45 16.1
2020-May-28 02:38 16.7
2020-May-28 02:31 16.7
2020-May-28 02:24 16.7
2020-May-28 02:17 16.7
2020-May-28 02:10 16.7
2020-May-28 02:03 16.7
2020-May-28 01:56 16.7
2020-May-28 01:49 16.7
2020-May-28 01:42 17.2
2020-May-28 01:35 17.2
2020-May-28 01:28 045 17.2
2020-May-28 01:21 045 17.2
2020-May-28 01:14 16.7
2020-May-28 01:07 045 16.7
2020-May-28 01:00 045 16.7
2020-May-28 00:53 090 16.7
2020-May-28 00:46 065 16.7
2020-May-28 00:39 045 16.7
2020-May-28 00:32 17.2
2020-May-28 00:25 090 17.2
2020-May-28 00:18 176 17.2
2020-May-28 00:11 225 17.2
2020-May-28 00:04 17.2
2020-May-27 23:57 17.2
2020-May-27 23:50 17.2
2020-May-27 23:43 17.2
2020-May-27 23:36 045 17.2
2020-May-27 23:29 16.7
2020-May-27 23:22 135 16.7
2020-May-27 23:15 135 16.7
2020-May-27 23:08 135 16.7
2020-May-27 23:01 16.7
2020-May-27 22:54 16.7
2020-May-27 22:47 16.7
2020-May-27 22:40 16.7
2020-May-27 22:33 16.7
2020-May-27 22:26 16.7
2020-May-27 22:19 16.7
2020-May-27 22:12 16.7
2020-May-27 22:05 17.2
2020-May-27 21:58 17.2
2020-May-27 21:51 17.2
2020-May-27 21:44 090 17.2
2020-May-27 21:37 090 17.2
2020-May-27 21:30 17.2
2020-May-27 21:23 090 17.8
2020-May-27 21:16 125 17.8
2020-May-27 21:09 090 17.8
2020-May-27 21:02 090 0 gusting 1 17.8
2020-May-27 20:55 072 0 gusting 1 17.8
2020-May-27 20:48 090 17.8
2020-May-27 20:41 090 0 gusting 1 17.8
2020-May-27 20:34 090 17.8
2020-May-27 20:27 090 17.8
2020-May-27 20:20 090 0 gusting 1 17.8
2020-May-27 20:13 090 0 gusting 0 17.8
2020-May-27 20:06 090 0 gusting 0 17.8
2020-May-27 19:59 090 0 gusting 0 17.8
2020-May-27 19:52 090 0 gusting 1 18.3
2020-May-27 19:45 090 0 gusting 1 18.3
2020-May-27 19:38 096 0 gusting 1 18.3
2020-May-27 19:31 142 0 gusting 1 18.9
2020-May-27 19:24 031 0 gusting 2 19.4
2020-May-27 19:17 058 0 gusting 2 19.4
2020-May-27 19:10 080 0 gusting 1 20.0
2020-May-27 19:03 010 0 gusting 1 20.6
2020-May-27 18:56 359 1 gusting 1 21.7
2020-May-27 18:49 341 1 gusting 1 22.2
2020-May-27 18:42 025 1 gusting 2 22.8
2020-May-27 18:35 337 2 gusting 2 22.8
2020-May-27 18:28 354 2 gusting 3 23.3
2020-May-27 18:21 032 2 gusting 3 23.9
2020-May-27 18:14 017 1 gusting 2 24.4
2020-May-27 18:07 013 1 gusting 2 24.4
2020-May-27 18:00 356 2 gusting 4 25.0
2020-May-27 17:53 337 2 gusting 4 25.0
2020-May-27 17:46 020 2 gusting 3 25.6
2020-May-27 17:39 042 2 gusting 3 25.6
2020-May-27 17:32 003 1 gusting 3 26.1
2020-May-27 17:25 037 2 gusting 3 26.1
2020-May-27 17:18 025 1 gusting 2 26.7
2020-May-27 17:11 030 2 gusting 3 26.1
2020-May-27 17:04 009 3 gusting 5 25.6
2020-May-27 16:57 356 3 gusting 5 25.6
2020-May-27 16:50 321 2 gusting 4 26.1
2020-May-27 16:43 014 3 gusting 5 26.1
2020-May-27 16:36 353 3 gusting 5 26.7
2020-May-27 16:29 331 3 gusting 5 26.7
2020-May-27 16:22 307 2 gusting 5 26.7
2020-May-27 16:15 009 2 gusting 3 27.8
2020-May-27 16:08 190 2 gusting 4 27.2
2020-May-27 16:01 169 2 gusting 3 27.2
2020-May-27 15:54 228 2 gusting 4 27.2
2020-May-27 15:47 245 4 gusting 6 26.1
2020-May-27 15:40 241 4 gusting 6 26.7
2020-May-27 15:33 271 3 gusting 6 27.2
2020-May-27 15:26 343 3 gusting 4 27.2
2020-May-27 15:19 351 3 gusting 4 27.2
2020-May-27 15:12 236 3 gusting 6 27.8
2020-May-27 15:05 210 3 gusting 6 27.8
2020-May-27 14:58 332 1 gusting 3 28.3
2020-May-27 14:51 011 3 gusting 6 27.8
2020-May-27 14:44 355 2 gusting 6 27.8
2020-May-27 14:37 311 3 gusting 6 27.8
2020-May-27 14:30 322 2 gusting 4 28.3
2020-May-27 14:23 040 3 gusting 6 27.8
2020-May-27 14:16 153 3 gusting 3 28.3
2020-May-27 14:09 049 3 gusting 6 27.8
2020-May-27 14:02 073 4 gusting 6 27.2
2020-May-27 13:55 331 3 gusting 6 27.8
2020-May-27 13:48 269 3 gusting 6 27.2
2020-May-27 13:41 221 2 gusting 3 27.8
2020-May-27 13:34 253 3 gusting 4 27.2
2020-May-27 13:27 292 3 gusting 6 27.2
2020-May-27 13:20 017 3 gusting 6 27.2
2020-May-27 13:13 346 2 gusting 3 27.8
2020-May-27 13:06 211 3 gusting 3 27.8
2020-May-27 12:59 211 2 gusting 3 27.8
2020-May-27 12:52 167 2 gusting 3 27.8
2020-May-27 12:45 247 2 gusting 3 27.2
2020-May-27 12:38 276 3 gusting 6 26.7
2020-May-27 12:31 039 3 gusting 5 27.2
2020-May-27 12:24 114 3 gusting 5 27.2
2020-May-27 12:17 224 3 gusting 3 27.2
2020-May-27 12:10 280 4 gusting 5 27.2
2020-May-27 12:03 242 4 gusting 5 26.7
2020-May-27 11:56 209 2 gusting 4 26.7
2020-May-27 11:49 263 3 gusting 3 26.1
2020-May-27 11:42 334 3 gusting 6 26.7
2020-May-27 11:35 013 3 gusting 6 26.1
2020-May-27 11:28 010 2 gusting 5 26.7
2020-May-27 11:21 064 3 gusting 5 26.1
2020-May-27 11:14 288 3 gusting 4 26.1
2020-May-27 11:07 256 3 gusting 4 26.1
2020-May-27 11:00 275 3 gusting 4 26.1
2020-May-27 10:53 317 3 gusting 4 26.1
2020-May-27 10:46 333 2 gusting 4 26.1
2020-May-27 10:39 332 2 gusting 6 26.1
2020-May-27 10:32 358 2 gusting 3 26.1
2020-May-27 10:25 011 2 gusting 4 26.7
2020-May-27 10:18 001 2 gusting 3 26.1
2020-May-27 10:11 349 2 gusting 3 26.1
2020-May-27 10:04 337 3 gusting 6 25.6
2020-May-27 09:57 265 2 gusting 6 26.1
2020-May-27 09:50 323 2 gusting 4 25.6
2020-May-27 09:43 294 3 gusting 4 25.6
2020-May-27 09:36 296 2 gusting 3 26.1
2020-May-27 09:29 317 1 gusting 2 26.1
2020-May-27 09:22 283 1 gusting 3 26.1
2020-May-27 09:15 275 3 gusting 4 25.6
2020-May-27 09:08 266 4 gusting 4 25.6
2020-May-27 09:01 194 2 gusting 4 25.6
2020-May-27 08:54 191 1 gusting 2 25.6
2020-May-27 08:47 256 1 gusting 3 25.6
2020-May-27 08:40 207 1 gusting 3 25.6
2020-May-27 08:33 061 1 gusting 3 25.0
2020-May-27 08:26 166 2 gusting 3 25.0
2020-May-27 08:19 144 1 gusting 3 25.6
2020-May-27 08:12 092 1 gusting 3 25.0
2020-May-27 08:05 140 1 gusting 2 25.0
2020-May-27 07:58 037 2 gusting 3 24.4
2020-May-27 07:51 067 1 gusting 3 25.0
2020-May-27 07:44 046 1 gusting 4 25.0
2020-May-27 07:37 130 0 gusting 1 25.6
2020-May-27 07:30 144 1 gusting 2 24.4
2020-May-27 07:23 084 2 gusting 3 23.3
2020-May-27 07:16 023 2 gusting 3 22.8
2020-May-27 07:09 036 1 gusting 1 23.3
2020-May-27 07:02 077 0 gusting 1 22.2
2020-May-27 06:55 028 1 gusting 3 22.2
2020-May-27 06:48 085 1 gusting 2 23.3
2020-May-27 06:41 113 2 gusting 3 22.2
2020-May-27 06:34 092 2 gusting 3 21.7
2020-May-27 06:10 100 1 gusting 3 22.2
2020-May-27 06:03 123 1 gusting 1 22.2
2020-May-27 05:56 097 0 gusting 1 21.1
2020-May-27 05:49 078 0 gusting 1 19.4
2020-May-27 05:42 111 0 gusting 1 18.9
2020-May-27 05:35 127 0 gusting 1 18.9
2020-May-27 05:28 052 0 gusting 2 18.9
2020-May-27 05:21 051 1 gusting 2 18.9
2020-May-27 05:14 125 18.3
2020-May-27 05:07 121 0 gusting 1 18.3
2020-May-27 05:00 058 1 gusting 2 18.9
2020-May-27 04:53 058 1 gusting 2 18.3
2020-May-27 04:46 058 1 gusting 3 18.3
2020-May-27 04:39 036 0 gusting 1 17.2
2020-May-27 04:32 077 0 gusting 1 17.8
2020-May-27 04:25 126 17.8
2020-May-27 04:18 124 0 gusting 1 17.8
2020-May-27 04:11 074 17.8
2020-May-27 04:04 090 17.8
2020-May-27 03:57 090 0 gusting 1 17.8
2020-May-27 03:50 072 0 gusting 1 17.2
2020-May-27 03:43 066 0 gusting 1 17.2
2020-May-27 03:36 135 17.2
2020-May-27 03:29 17.8
2020-May-27 03:22 17.8
2020-May-27 03:15 17.8
2020-May-27 03:08 131 0 gusting 1 17.2
2020-May-27 03:01 035 17.2